SCP
0 0 0 0 1 1 0 1 1 1 0 0 0 0 0 0 0 0 0 0 0 0 0 0 0 0 0 0 0 0 0 0 0
0 0 0 0 0 0 0 0 1 1 1 1 0 0 0 0 0 0 0 0 0 0 0 0 0 0 0 0 0 0 0 0 0
0 0 0 0 0 0 0 0 0 0 0 0 0 0 0 0 0 0 0 0 0 0 0 0 0 0 0 0 0 0 0 0 0
0 0 0 0 0 0 0 0 0 0 0 0 0 0 0 0 0 0 0 0 0 0 0 0 0 0 0 0 0 0 0 0 0
0 0 0 0 0 0 0 0 0 0 0 0 0 0 0 0 0 0 0 0 0 0 0 0 0 0 0 0 0 0 0 0 0
0 0 0 0 0 0 0 0 0 0 0 0 0 0 0 0 0 0 0 0 0 0 0 0 0 0 0 0 0 0 0 0 0
0 0 0 0 0 0 0 0 0 0 0 0 0 0 0 0 0 0 1 0 0 0 0 0 0 0 0 0 0 0 0 0 0
0 0 0 0 0 0 0 0 0 0 0 0 0 0 0 0 0 0 0 1 0 0 0 1 0 0 0 0 0 0 0 0 0
0 0 0 0 0 0 0 0 0 0 0 0 0 0 0 0 0 0 0 1 1 1 0 1 0 0 0 0 0 0 0 0 0
0 0 0 0 0 0 0 0 0 0 0 0 0 0 0 0 0 0 0 0 0 0 0 1 1 0 0 0 0 0 0 0 0
0 0 0 0 0 0 0 0 0 0 0 0 0 0 0 0 0 0 0 0 0 0 0 0 0 1 0 0 0 0 0 0 0
0 0 0 0 0 0 0 0 0 0 0 0 0 0 0 0 0 0 0 0 0 0 0 0 0 0 0 0 0 0 0 0 0
0 0 0 0 0 0 0 0 0 0 0 0 0 0 0 0 0 0 0 0 0 0 0 0 0 0 0 0 0 0 0 0 0
0 0 0 -0 0 0 0 0 0 0 0 0 0 0 0 0 0 0 0 0 0 0 0 0 0 0 0 0 0 0 0 0 0
0 0 0 0 0 0 0 0 0 0 0 0 0 0 0 0 0 0 0 0 0 0 0 0 0 0 0 0 0 0 0 0 0
0 0 0 0 0 0 0 0 0 0 0 0 0 0 0 0 0 0 0 0 0 0 0 0 0 0 0 0 0 0 0 0 1
0 0 0 0 0 0 0 0 0 0 0 0 0 0 0 0 0 0 0 0 0 0 0 0 0 0 0 0 0 0 0 0 0
0 0 0 0 0 0 0 0 0 0 0 0 0 0 0 0 0 0 0 0 0 0 0 0 0 0 0 0 0 0 0 0 0
0 0 0 0 0 0 0 0 0 0 0 0 0 0 0 0 0 0 0 0 0 0 0 0 0 0 0 0 0 0 0 0 0
0 0 0 0 0 0 0 0 0 0 0 0 0 0 0 0 0 0 0 0 0 0 0 0 0 0 0 0 0 0 0 0 0
Wind_Speed_500mb
25 23 23 19 23 26 23 24 25 26 27 28 27 25 22 22 18 18 23 20 22 25 18 14 12 12 10 6 7 9 8 9 13
26 24 22 28 26 27 25 24 26 24 27 30 31 32 29 28 24 24 31 21 32 28 25 19 16 15 13 12 12 11 9 10 11
36 33 26 27 25 25 27 26 28 36 35 27 27 32 34 37 33 27 33 22 31 32 28 21 22 20 18 15 15 14 12 9 10
38 44 43 36 33 29 29 29 30 30 32 44 49 34 32 34 40 36 38 29 39 38 32 27 25 22 21 18 17 16 14 13 12
50 51 48 47 44 39 33 31 30 30 33 36 37 57 48 35 39 43 41 45 37 41 39 31 29 26 24 22 20 19 18 15 14
55 48 47 47 47 43 42 39 35 32 32 33 31 31 42 57 38 44 48 53 53 49 48 40 34 32 29 24 22 22 20 19 17
55 59 51 37 41 44 46 43 45 41 38 37 32 31 28 30 41 39 40 49 61 53 51 45 41 37 32 32 29 24 24 23 21
40 45 50 48 46 47 49 47 45 46 44 42 37 35 35 36 34 33 34 37 54 62 52 43 38 38 37 36 34 34 29 28 27
59 42 41 55 50 51 43 44 44 44 47 46 43 39 39 39 38 38 31 32 35 48 67 53 41 37 39 40 39 39 39 36 33
59 61 47 40 54 43 43 43 37 43 45 45 44 42 42 44 41 40 41 37 35 38 40 49 50 49 49 46 44 45 44 43 43
58 54 58 48 43 39 32 30 39 45 46 45 42 43 40 42 47 47 47 46 46 41 35 34 49 54 57 50 51 51 51 48 48
62 67 60 60 51 58 68 51 43 42 46 44 45 46 44 39 37 46 53 52 51 51 51 43 42 49 48 62 60 55 56 56 54
68 66 65 55 50 54 53 55 55 47 45 47 47 49 46 44 40 39 47 53 55 55 55 52 49 47 59 60 50 57 58 59 60
58 61 74 71 56 54 67 54 51 47 44 41 39 39 43 45 44 48 48 51 54 55 54 54 56 56 55 61 63 50 54 59 62
69 78 73 77 68 50 57 64 57 56 54 53 59 59 57 52 52 48 53 51 49 48 47 49 52 53 57 65 65 62 53 52 60
71 78 74 76 78 70 44 58 59 53 50 46 52 53 53 57 60 64 57 47 36 35 38 41 43 46 47 48 55 68 68 50 56
69 66 68 59 70 61 65 56 58 61 53 53 56 56 57 57 52 52 50 49 48 48 46 45 49 42 42 44 43 54 56 62 60
66 67 68 64 67 66 58 48 48 60 67 65 58 32 47 52 55 49 43 30 26 34 49 50 49 53 51 49 47 47 57 52 52
64 63 69 74 77 73 73 73 65 49 57 57 58 61 58 41 43 51 53 51 44 35 45 55 55 46 49 59 61 60 51 55 57
67 67 73 70 69 65 60 61 63 70 56 59 64 63 62 61 56 59 68 61 48 35 36 46 45 40 38 43 55 64 65 62 56
Wind_Direction_500mb
296 290 285 272 251 247 251 256 257 262 260 254 253 255 254 251 233 203 191 216 238 257 272 258 232 197 206 236 200 194 184 159 157
318 304 299 288 277 258 254 244 250 258 262 262 258 251 249 252 243 203 198 216 236 250 270 255 235 221 224 219 210 199 195 168 169
326 316 310 297 292 283 280 272 253 249 254 256 258 258 258 252 247 222 217 219 229 248 260 249 239 232 225 217 208 211 206 189 190
319 317 316 312 302 294 284 274 268 263 259 257 260 261 260 259 254 240 226 215 231 233 246 252 242 235 228 224 219 214 209 208 199
307 304 305 304 304 297 287 279 272 266 264 257 258 254 253 264 253 251 232 225 231 239 237 245 248 236 230 227 219 222 220 209 204
301 295 294 295 295 292 290 283 271 265 261 257 253 257 257 253 261 249 244 227 233 232 232 235 244 243 229 228 227 228 225 221 218
301 296 295 285 282 282 282 279 274 266 255 256 252 246 239 238 244 251 247 239 234 234 224 223 231 237 232 231 232 231 233 228 225
286 297 294 278 276 280 281 277 265 264 260 254 251 243 234 235 241 250 249 243 239 234 229 222 228 230 233 235 232 234 239 236 236
277 286 289 287 286 283 285 285 277 264 255 257 255 248 242 239 239 236 243 247 240 238 236 225 229 235 237 235 235 235 235 237 237
289 274 279 291 281 277 275 274 279 280 269 261 261 255 249 245 244 238 240 244 243 241 238 234 237 244 246 246 242 239 239 237 235
292 291 278 280 284 264 261 274 274 274 278 275 268 263 258 252 248 248 245 243 245 245 241 247 232 236 244 251 246 243 240 238 237
292 289 286 278 275 277 266 266 264 276 278 277 272 272 268 261 258 252 250 251 245 245 247 245 234 233 243 245 248 245 246 243 238
284 281 279 278 280 268 263 268 266 268 270 279 283 276 276 269 263 260 252 251 252 249 248 249 247 237 233 238 250 246 247 246 243
271 276 272 276 276 276 267 260 259 259 257 264 271 274 279 275 272 267 263 254 256 260 259 256 252 247 241 240 242 242 252 249 244
276 276 274 273 271 265 257 258 258 260 262 264 268 266 267 267 266 269 269 269 267 263 266 266 261 257 254 249 249 250 241 249 248
273 271 272 265 267 266 265 260 250 254 259 265 265 266 265 259 265 268 277 270 264 269 265 262 263 258 253 254 253 253 254 250 251
278 272 273 270 263 265 259 258 261 252 256 258 258 257 262 266 268 269 273 273 268 263 266 267 261 263 263 261 264 249 246 252 249
264 267 264 265 261 260 257 250 252 257 255 251 252 244 248 264 270 272 266 259 277 268 256 256 260 262 265 262 257 258 251 243 243
273 264 263 261 256 255 257 256 259 252 251 246 248 250 252 242 258 261 261 259 278 280 271 263 268 279 272 263 266 264 253 246 246
283 268 256 256 257 258 254 253 254 253 250 253 251 252 251 251 253 266 269 272 278 280 275 277 287 280 272 273 268 268 262 252 245
Wind_Speed_850mb
25 23 23 19 23 26 23 24 25 26 27 28 27 25 22 22 18 18 23 20 22 25 18 14 12 12 10 6 7 9 8 9 13
26 24 22 28 26 27 25 24 26 24 27 30 31 32 29 28 24 24 31 21 32 28 25 19 16 15 13 12 12 11 9 10 11
36 33 26 27 25 25 27 26 28 36 35 27 27 32 34 37 33 27 33 22 31 32 28 21 22 20 18 15 15 14 12 9 10
38 44 43 36 33 29 29 29 30 30 32 44 49 34 32 34 40 36 38 29 39 38 32 27 25 22 21 18 17 16 14 13 12
50 51 48 47 44 39 33 31 30 30 33 36 37 57 48 35 39 43 41 45 37 41 39 31 29 26 24 22 20 19 18 15 14
55 48 47 47 47 43 42 39 35 32 32 33 31 31 42 57 38 44 48 53 53 49 48 40 34 32 29 24 22 22 20 19 17
55 59 51 37 41 44 46 43 45 41 38 37 32 31 28 30 41 39 40 49 61 53 51 45 41 37 32 32 29 24 24 23 21
40 45 50 48 46 47 49 47 45 46 44 42 37 35 35 36 34 33 34 37 54 62 52 43 38 38 37 36 34 34 29 28 27
59 42 41 55 50 51 43 44 44 44 47 46 43 39 39 39 38 38 31 32 35 48 67 53 41 37 39 40 39 39 39 36 33
59 61 47 40 54 43 43 43 37 43 45 45 44 42 42 44 41 40 41 37 35 38 40 49 50 49 49 46 44 45 44 43 43
58 54 58 48 43 39 32 30 39 45 46 45 42 43 40 42 47 47 47 46 46 41 35 34 49 54 57 50 51 51 51 48 48
62 67 60 60 51 58 68 51 43 42 46 44 45 46 44 39 37 46 53 52 51 51 51 43 42 49 48 62 60 55 56 56 54
68 66 65 55 50 54 53 55 55 47 45 47 47 49 46 44 40 39 47 53 55 55 55 52 49 47 59 60 50 57 58 59 60
58 61 74 71 56 54 67 54 51 47 44 41 39 39 43 45 44 48 48 51 54 55 54 54 56 56 55 61 63 50 54 59 62
69 78 73 77 68 50 57 64 57 56 54 53 59 59 57 52 52 48 53 51 49 48 47 49 52 53 57 65 65 62 53 52 60
71 78 74 76 78 70 44 58 59 53 50 46 52 53 53 57 60 64 57 47 36 35 38 41 43 46 47 48 55 68 68 50 56
69 66 68 59 70 61 65 56 58 61 53 53 56 56 57 57 52 52 50 49 48 48 46 45 49 42 42 44 43 54 56 62 60
66 67 68 64 67 66 58 48 48 60 67 65 58 32 47 52 55 49 43 30 26 34 49 50 49 53 51 49 47 47 57 52 52
64 63 69 74 77 73 73 73 65 49 57 57 58 61 58 41 43 51 53 51 44 35 45 55 55 46 49 59 61 60 51 55 57
67 67 73 70 69 65 60 61 63 70 56 59 64 63 62 61 56 59 68 61 48 35 36 46 45 40 38 43 55 64 65 62 56
Wind_Direction_850mb
296 290 285 272 251 247 251 256 257 262 260 254 253 255 254 251 233 203 191 216 238 257 272 258 232 197 206 236 200 194 184 159 157
318 304 299 288 277 258 254 244 250 258 262 262 258 251 249 252 243 203 198 216 236 250 270 255 235 221 224 219 210 199 195 168 169
326 316 310 297 292 283 280 272 253 249 254 256 258 258 258 252 247 222 217 219 229 248 260 249 239 232 225 217 208 211 206 189 190
319 317 316 312 302 294 284 274 268 263 259 257 260 261 260 259 254 240 226 215 231 233 246 252 242 235 228 224 219 214 209 208 199
307 304 305 304 304 297 287 279 272 266 264 257 258 254 253 264 253 251 232 225 231 239 237 245 248 236 230 227 219 222 220 209 204
301 295 294 295 295 292 290 283 271 265 261 257 253 257 257 253 261 249 244 227 233 232 232 235 244 243 229 228 227 228 225 221 218
301 296 295 285 282 282 282 279 274 266 255 256 252 246 239 238 244 251 247 239 234 234 224 223 231 237 232 231 232 231 233 228 225
286 297 294 278 276 280 281 277 265 264 260 254 251 243 234 235 241 250 249 243 239 234 229 222 228 230 233 235 232 234 239 236 236
277 286 289 287 286 283 285 285 277 264 255 257 255 248 242 239 239 236 243 247 240 238 236 225 229 235 237 235 235 235 235 237 237
289 274 279 291 281 277 275 274 279 280 269 261 261 255 249 245 244 238 240 244 243 241 238 234 237 244 246 246 242 239 239 237 235
292 291 278 280 284 264 261 274 274 274 278 275 268 263 258 252 248 248 245 243 245 245 241 247 232 236 244 251 246 243 240 238 237
292 289 286 278 275 277 266 266 264 276 278 277 272 272 268 261 258 252 250 251 245 245 247 245 234 233 243 245 248 245 246 243 238
284 281 279 278 280 268 263 268 266 268 270 279 283 276 276 269 263 260 252 251 252 249 248 249 247 237 233 238 250 246 247 246 243
271 276 272 276 276 276 267 260 259 259 257 264 271 274 279 275 272 267 263 254 256 260 259 256 252 247 241 240 242 242 252 249 244
276 276 274 273 271 265 257 258 258 260 262 264 268 266 267 267 266 269 269 269 267 263 266 266 261 257 254 249 249 250 241 249 248
273 271 272 265 267 266 265 260 250 254 259 265 265 266 265 259 265 268 277 270 264 269 265 262 263 258 253 254 253 253 254 250 251
278 272 273 270 263 265 259 258 261 252 256 258 258 257 262 266 268 269 273 273 268 263 266 267 261 263 263 261 264 249 246 252 249
264 267 264 265 261 260 257 250 252 257 255 251 252 244 248 264 270 272 266 259 277 268 256 256 260 262 265 262 257 258 251 243 243
273 264 263 261 256 255 257 256 259 252 251 246 248 250 252 242 258 261 261 259 278 280 271 263 268 279 272 263 266 264 253 246 246
283 268 256 256 257 258 254 253 254 253 250 253 251 252 251 251 253 266 269 272 278 280 275 277 287 280 272 273 268 268 262 252 245